Regional Weather Roundup
Issued by NWS Huntsville, AL

Home | Current Version | Previous Version | Text Only | Print | Product List | Glossary On
Versions: 1 2 3 4 5 6 7 8 9 10 11 12 13 14 15 16 17 18 19 20 21 22 23 24 25 26 27 28 29 30 31 32 33 34 35 36 37 38 39 40 41 42 43 44 45 46 47 48 49 50
000
ASUS44 KHUN 241010
RWRHUN

WEATHER ROUNDUP FOR THE TENNESSEE VALLEY
NATIONAL WEATHER SERVICE HUNTSVILLE AL
500 AM CDT THU APR 24 2014

ALZ001>004-241100-
NORTHWEST ALABAMA

CITY           SKY/WX    TMP DP  RH WIND       PRES   REMARKS
COURTLAND HCN    N/A     41 N/A N/A CALM        N/A
RUSSELLVILLE     N/A     39 N/A N/A MISG        N/A
SHOALS AIRPORT CLEAR     44  41  89 CALM      29.96F
SHOALS TVA RES   N/A     43 N/A N/A MISG        N/A
$$

ALZ005>007-016-241100-
NORTH CENTRAL ALABAMA

CITY           SKY/WX    TMP DP  RH WIND       PRES   REMARKS
CULLMAN AG STN   N/A     43 N/A N/A CALM        N/A
DECATUR AP     CLEAR     42  39  89 CALM      29.98R
HUNTSVILLE AP  CLEAR     46  43  89 CALM      29.97R
HUN NWS/UAH      N/A     48  39  72 NW1         N/A
MERIDIANVILLE  CLEAR     41  37  87 CALM      29.97S
VINEMONT AP    FAIR      46  39  78 NE3       29.99R
$$

ALZ008>010-241100-
NORTHEAST ALABAMA

CITY           SKY/WX    TMP DP  RH WIND       PRES   REMARKS
ALBERTVILLE    PTCLDY    46  41  81 E3        29.97R
FORT PAYNE     CLEAR     37  34  87 CALM      29.98S
SCOTTSBORO AP  PTCLDY    43  39  87 CALM      30.01R
SCOTTSBORO HCN   N/A     41 N/A N/A MISG        N/A
VALLEY HEAD      N/A     39 N/A N/A MISG        N/A
$$

TNZ076-096-097-241100-
SOUTHEASTERN MIDDLE TENNESSEE

CITY           SKY/WX    TMP DP  RH WIND       PRES   REMARKS
FAYETTEVILLE   FAIR      45  35  67 CALM      29.97S
TULLAHOMA      CLEAR     41  36  81 CALM      29.98S
WINCHESTER     CLEAR     39  37  93 CALM      29.98S
$$

...SURROUNDING SITES...

CITY           SKY/WX    TMP DP  RH WIND       PRES   REMARKS
ATLANTA        CLEAR     54  37  52 N7        29.99R
ANNISTON       CLEAR     46  44  93 E3        29.98S
BIRMINGHAM     CLEAR     51  44  77 CALM      29.98R
CHATTANOOGA    CLEAR     46  43  89 SW6       30.01R
CORINTH        FAIR      43  41  93 CALM      29.94S
DALTON         CLEAR     41  41 100 CALM      30.01R
GADSDEN        CLEAR     43  39  87 CALM      29.98S
GOLDEN TRNGL   CLEAR     54  41  62 CALM      29.95F
HALEYVILLE     FAIR      40  40 100 CALM      29.97F
JACKSON TN     PTCLDY    49  36  61 E3        29.93F
LEWISBURG      FAIR      37  35  92 CALM      29.97S
MEMPHIS        CLEAR     58  39  49 CALM      29.91R
MURFREESBORO   FAIR      43  37  79 CALM      29.98R
NASHVILLE      CLEAR     44  37  76 CALM      29.99R
OXFORD MS      FAIR      55  39  54 SE3       29.93S
ROME           CLEAR     40  39  97 NE3       30.00R
SAVANNAH       CLEAR     39  38  97 CALM      29.95
TUPELO         CLEAR     46  43  89 NE3       29.92F
TUSCALOOSA     CLEAR     50  47  89 CALM      29.96R
$$

...GULF COAST WEATHER...

CITY           SKY/WX    TMP DP  RH WIND       PRES   REMARKS
GULFPORT       CLEAR     64  60  87 CALM      29.91S FOG
PASCAGOULA     FOG       59  59 100 CALM      29.92S VSB 1/4
MOBILE         FOG       63  63 100 CALM      29.93S VSB 1/4
GULF SHORES    FOG       59  59 100 CALM      29.92F VSB<1/4
PENSACOLA      MOCLDY    63  63 100 CALM      29.92S FOG
DESTIN         MOCLDY    68  66  93 CALM      29.94S FOG
PANAMA CITY    FOG       63  63 100 CALM      29.95  VSB 1/4
APPALACHICOLA  FOG       63  60  90 CALM      29.94S VSB 1/4
$$




USA.gov is the U.S. government's official web portal to all federal, state and local government web resources and services.